<?xml version="1.0" encoding="UTF-8"?>
<gpx
version="1.1"
creator="Kashmir3D 9.350 - http://www.kashmir3d.com"
xmlns:xsi="http://www.w3.org/2001/XMLSchema-instance"
xmlns="http://www.topografix.com/GPX/1/1"
xmlns:kashmir3d="http://www.kashmir3d.com/namespace/kashmir3d"
xsi:schemaLocation="http://www.topografix.com/GPX/1/1 http://www.topografix.com/GPX/1/1/gpx.xsd
	http://www.kashmir3d.com/namespace/kashmir3d http://www.kashmir3d.com/namespace/kashmir3d.xsd">
<trk>
 <name>朝鮮岩</name>
 <number>1</number>
 <extensions>
 <kashmir3d:line_color>0000ff</kashmir3d:line_color>
 <kashmir3d:line_size>3</kashmir3d:line_size>
 <kashmir3d:line_style>1</kashmir3d:line_style>
 <kashmir3d:icon>901001</kashmir3d:icon>
 </extensions>
<trkseg>
<trkpt lat="34.931088" lon="138.343616">
 <ele>213.5</ele>
 <time>2020-03-24T16:32:04Z</time>
</trkpt>
<trkpt lat="34.931139" lon="138.343562">
 <ele>215.6</ele>
 <time>2020-03-24T16:32:04Z</time>
</trkpt>
<trkpt lat="34.931303" lon="138.343455">
 <ele>226.2</ele>
 <time>2020-03-24T16:32:04Z</time>
</trkpt>
<trkpt lat="34.931491" lon="138.343358">
 <ele>238.2</ele>
 <time>2020-03-24T16:32:04Z</time>
</trkpt>
<trkpt lat="34.931715" lon="138.343283">
 <ele>249.8</ele>
 <time>2020-03-24T16:32:04Z</time>
</trkpt>
<trkpt lat="34.931869" lon="138.343122">
 <ele>261.5</ele>
 <time>2020-03-24T16:32:04Z</time>
</trkpt>
<trkpt lat="34.931998" lon="138.343015">
 <ele>268.1</ele>
 <time>2020-03-24T16:32:04Z</time>
</trkpt>
<trkpt lat="34.932230" lon="138.342983">
 <ele>278.6</ele>
 <time>2020-03-24T16:32:04Z</time>
</trkpt>
<trkpt lat="34.932367" lon="138.343036">
 <ele>283.6</ele>
 <time>2020-03-24T16:32:04Z</time>
</trkpt>
<trkpt lat="34.932496" lon="138.343197">
 <ele>287</ele>
 <time>2020-03-24T16:32:05Z</time>
</trkpt>
<trkpt lat="34.932616" lon="138.343433">
 <ele>285.3</ele>
 <time>2020-03-24T16:32:05Z</time>
</trkpt>
<trkpt lat="34.932779" lon="138.343659">
 <ele>286.1</ele>
 <time>2020-03-24T16:32:05Z</time>
</trkpt>
<trkpt lat="34.932899" lon="138.343691">
 <ele>285.8</ele>
 <time>2020-03-24T16:32:05Z</time>
</trkpt>
<trkpt lat="34.933079" lon="138.343637">
 <ele>287.3</ele>
 <time>2020-03-24T16:32:05Z</time>
</trkpt>
<trkpt lat="34.933259" lon="138.343584">
 <ele>295.1</ele>
 <time>2020-03-24T16:32:05Z</time>
</trkpt>
<trkpt lat="34.933397" lon="138.343627">
 <ele>308.6</ele>
 <time>2020-03-24T16:32:05Z</time>
</trkpt>
<trkpt lat="34.933491" lon="138.343616">
 <ele>310.4</ele>
 <time>2020-03-24T16:32:05Z</time>
</trkpt>
<trkpt lat="34.933663" lon="138.343798">
 <ele>312.8</ele>
 <time>2020-03-24T16:32:05Z</time>
</trkpt>
<trkpt lat="34.933877" lon="138.344034">
 <ele>312.2</ele>
 <time>2020-03-24T16:32:06Z</time>
</trkpt>
<trkpt lat="34.933963" lon="138.344184">
 <ele>310.1</ele>
 <time>2020-03-24T16:32:06Z</time>
</trkpt>
<trkpt lat="34.934032" lon="138.344238">
 <ele>307.4</ele>
 <time>2020-03-24T16:32:06Z</time>
</trkpt>
<trkpt lat="34.934075" lon="138.344496">
 <ele>301.7</ele>
 <time>2020-03-24T16:32:06Z</time>
</trkpt>
<trkpt lat="34.934135" lon="138.344667">
 <ele>301.7</ele>
 <time>2020-03-24T16:32:06Z</time>
</trkpt>
<trkpt lat="34.934178" lon="138.344839">
 <ele>300.7</ele>
 <time>2020-03-24T16:32:06Z</time>
</trkpt>
<trkpt lat="34.934111" lon="138.345056">
 <ele>297.2</ele>
 <time>2020-03-24T16:32:06Z</time>
</trkpt>
<trkpt lat="34.934178" lon="138.344850">
 <ele>300.7</ele>
 <time>2020-03-24T16:32:06Z</time>
</trkpt>
<trkpt lat="34.934144" lon="138.344667">
 <ele>301.7</ele>
 <time>2020-03-24T16:32:06Z</time>
</trkpt>
<trkpt lat="34.934066" lon="138.344485">
 <ele>299.3</ele>
 <time>2020-03-24T16:32:06Z</time>
</trkpt>
<trkpt lat="34.934041" lon="138.344238">
 <ele>307.6</ele>
 <time>2020-03-24T16:32:07Z</time>
</trkpt>
<trkpt lat="34.933946" lon="138.344184">
 <ele>310.1</ele>
 <time>2020-03-24T16:32:07Z</time>
</trkpt>
<trkpt lat="34.933809" lon="138.344120">
 <ele>314.4</ele>
 <time>2020-03-24T16:32:07Z</time>
</trkpt>
<trkpt lat="34.933586" lon="138.344131">
 <ele>320</ele>
 <time>2020-03-24T16:32:07Z</time>
</trkpt>
<trkpt lat="34.933405" lon="138.344142">
 <ele>322.5</ele>
 <time>2020-03-24T16:32:07Z</time>
</trkpt>
<trkpt lat="34.933131" lon="138.344120">
 <ele>312.1</ele>
 <time>2020-03-24T16:32:07Z</time>
</trkpt>
<trkpt lat="34.932942" lon="138.344099">
 <ele>305.1</ele>
 <time>2020-03-24T16:32:07Z</time>
</trkpt>
<trkpt lat="34.932753" lon="138.343991">
 <ele>304.2</ele>
 <time>2020-03-24T16:32:07Z</time>
</trkpt>
<trkpt lat="34.932599" lon="138.343830">
 <ele>297.8</ele>
 <time>2020-03-24T16:32:07Z</time>
</trkpt>
<trkpt lat="34.932478" lon="138.343509">
 <ele>297.8</ele>
 <time>2020-03-24T16:32:08Z</time>
</trkpt>
<trkpt lat="34.932315" lon="138.343101">
 <ele>283.6</ele>
 <time>2020-03-24T16:32:08Z</time>
</trkpt>
<trkpt lat="34.932230" lon="138.342983">
 <ele>278.6</ele>
 <time>2020-03-24T16:32:08Z</time>
</trkpt>
<trkpt lat="34.932006" lon="138.343004">
 <ele>269.6</ele>
 <time>2020-03-24T16:32:08Z</time>
</trkpt>
<trkpt lat="34.931878" lon="138.343112">
 <ele>261.5</ele>
 <time>2020-03-24T16:32:08Z</time>
</trkpt>
<trkpt lat="34.931715" lon="138.343283">
 <ele>249.8</ele>
 <time>2020-03-24T16:32:08Z</time>
</trkpt>
<trkpt lat="34.931500" lon="138.343348">
 <ele>238.2</ele>
 <time>2020-03-24T16:32:08Z</time>
</trkpt>
<trkpt lat="34.931311" lon="138.343444">
 <ele>227.5</ele>
 <time>2020-03-24T16:32:08Z</time>
</trkpt>
<trkpt lat="34.931157" lon="138.343562">
 <ele>216.9</ele>
 <time>2020-03-24T16:32:08Z</time>
</trkpt>
<trkpt lat="34.931097" lon="138.343616">
 <ele>213.5</ele>
 <time>2020-03-24T16:32:08Z</time>
</trkpt>
</trkseg>
</trk>
</gpx>

